{"data":{"norad_id":64869,"epoch":"2026-09-21T17:33:04.696704Z","epoch_age_seconds":64841,"freshness":"FRESH","line1":"1 64869U 25154A   26264.73130436  .00002335  00000+0  21946-3 0  9994","line2":"2 64869  97.6630 326.3629 0003574 266.0771  94.0041 14.94868342 63427","mean_motion":14.94868342,"eccentricity":0.0003574,"inclination_deg":97.663,"raan_deg":326.3629,"arg_perigee_deg":266.0771,"mean_anomaly_deg":94.0041,"bstar":0.00021946,"rev_number":6342,"period_min":96.329553549405,"perigee_km":580.29360290987,"apogee_km":585.26926740732,"semimajor_km":6960.9184351586,"source":"CELESTRAK","updated_at":"2026-09-22T09:00:30.010915Z"}}